Simultaneous Nadir Overpasses (SNOs) Predictions

Prediction of SNOs between AQUA and METOP-B Satellite Orbit:

Table of predicted SNOs for the next 14.0 days since TLE Epoch: 2/4/2023
Index Date (AQUA) Time (AQUA) Lat,Lon (AQUA) SZA (AQUA ) Date (METOP-B) Time (METOP-B) Lat,Lon (METOP-B) SZA (METOP-B ) Distance(km) Time Diff (sec)
1 02/06/2023 14:33:21 74.20, -42.94 89.84 02/06/2023 14:32:18 74.19, -42.98 89.85 1.36 63
2 02/06/2023 15:22:47 -74.29, 124.51 90.08 02/06/2023 15:22:58 -74.29, 124.59 90.08 2.56 11
3 02/06/2023 16:12:21 74.67, -68.79 90.33 02/06/2023 16:13:30 74.67, -67.09 90.25 50.10 69
4 02/09/2023 09:16:40 -74.26,-143.88 90.97 02/09/2023 09:16:02 -74.24,-143.79 90.99 3.43 38
5 02/09/2023 10:06:07 74.29, 23.69 89.05 02/09/2023 10:06:41 74.27, 23.62 89.03 3.04 34
6 02/12/2023 03:10:23 -73.77, -51.20 92.40 02/12/2023 03:09:15 -73.74, -53.28 92.33 64.73 68
7 02/12/2023 03:59:59 74.27, 115.30 88.13 02/12/2023 03:59:44 74.26, 115.32 88.13 1.15 15
8 02/12/2023 04:49:24 -74.30, -77.12 91.86 02/12/2023 04:50:25 -74.31, -77.21 91.84 3.51 61
9 02/14/2023 21:53:49 74.24,-153.08 87.18 02/14/2023 21:52:46 74.24,-152.99 87.18 2.78 63
10 02/14/2023 22:43:14 -74.27, 14.51 92.81 02/14/2023 22:43:27 -74.29, 14.48 92.78 2.99 13
11 02/14/2023 23:32:49 74.71,-178.94 87.67 02/14/2023 23:33:57 74.76,-176.96 87.63 58.12 68
12 02/17/2023 16:37:04 -74.24, 106.14 93.79 02/17/2023 16:36:30 -74.27, 106.15 93.76 2.99 34
13 02/17/2023 17:26:32 74.33, -86.44 86.30 02/17/2023 17:27:08 74.34, -86.34 86.30 3.05 36



Historial Predications of SNOs between AQUA and METOP-B
